NOAA 11 DEB

Satellite information

Favourite Embed

Satellite Type and Status

DEBRISIN ORBIT

Key statistics

Satellite NOAA 11 DEB at a glance.

Uptime

13373

Days in orbit

Revolutions

≈ 14.3

Per day

Orbit

SSO

Sun Synchronous Orbit

Inclination

98.5

Latest

Satellite identification and parameters

Extended collection of information and parameters for NOAA 11 DEB.

Object identification

Identified? True

Debris? True

Object name: NOAA 11 DEB

International designator: 1988-089E

Object number (NORAD): 37242

Object ID (CCSDS): 37242

Country: UNITED STATES OF AMERICA (US)

Current information (Y/N): Y

RCS size: MEDIUM

Orbital parameters

Period: 100.814 minutes

Inclination: 98.4865 deg

SMA: 7175.313 km

Apoapsis: 805.981 km

Periapsis: 788.374 km

RAAN: 105.6919 deg

Eccentricy: 0.0012269

Argument of periapsis: 220.6531 deg

Mean anomaly: 139.3736 deg

Mean motion: 14.2837264 rev/day

Mean motion (dot): 0.00003297 rev/day2

B* drag term: 0.001335 1/REarth

Two-line elements (TLE)

Creation date: May 5, 2025, 2:11 a.m.

Reference frame: TEME

Reference center: EARTH

Epoch: May 4, 2025, 8:22 p.m. UTC

TLE line 0: 0 NOAA 11 DEB

TLE line 1: 1 37242U 88089E 25124.84899084 .00003297 00000-0 13350-2 0 9990

TLE line 2: 2 37242 98.4865 105.6919 0012269 220.6531 139.3736 14.28372640891399

Live tracking on map

Real-time ground track for satellite NOAA 11 DEB.

In-orbit conjunctions

A list of the most updated potential collisions computed for object NOAA 11 DEB.

Target Orbit TCA Probability of collision Miss distance Type
THOR ABLESTAR DEB LEO 2024-11-01 02:28:10 0.0001086519 262.0 (m) DEBRIS
SAPPHIRE LEO 2024-10-13 11:09:33 0.0002045796 808.0 (m) PAYLOAD
SL-24 R/B SSO 2024-10-03 20:46:17 0.0009056335 275.0 (m) ROCKET BODY

Associated space launch

Fourth generation NOAA meteorological satellite

NOAA 11 DEB was lifted into orbit during the mission ‘Atlas E | NOAA 11’, on board a Atlas E space rocket.

The launch took place on Sept. 24, 1988, 10:02 a.m. from Space Launch Complex 3W.

For more information about the launch, click the button.

Launch to space Atlas E | NOAA 11
Atlas E | NOAA 11

Agency: N/A

Status: Launch Successful

Launch date: Sept. 24, 1988, 10:02 a.m. UTC

Rocket: Atlas E

Launch pad: Space Launch Complex 3W

Location: Vandenberg SFB, CA, USA

...

Latest news about this satellite

There are no fresh news available about this satellite. Check back as we update our databases every day.


Newsletter sign-up

Weekly statistics, charts and insights to help you stay on top of the space industry.